Location: Aigremont
(47.7188°N, 3.8925°E)
Time: 03:49:21
(UTC+00:00)

NOSS 3-1 (A) - Pass Details

Date: 18 February 2020
Orbit: 761 x 1452 km, 63.4° (Epoch: 26 March)

Event Time Altitude Azimuth Distance (km) Brightness Sun altitude
Exits shadow 02:56:37 61° 52° (NE) 1,419 4.3 -38.4°
Drops below altitude 10° 03:04:45 10° 123° (ESE) 3,455 6.6 -37.2°
Sets 03:07:52 0° 127° (SE) 4,482 7.3 -36.7°
